Weather History for DeLand, FL

Change the Weather History Date:

Wednesday, July 31, 2013

  Actual Average Record
Temperature  
Mean Temperature 84 °F -  
Max Temperature 96 °F 91 °F 96 °F (2013)
Min Temperature 73 °F 71 °F 73 °F (2013)
Cooling Degree Days 20    
Growing Degree Days 34 (Base 50)    
Moisture  
Dew Point 74 °F    
Average Humidity 76    
Maximum Humidity 100    
Minimum Humidity 44    
Precipitation  
Precipitation 0.00 in - - ()
Sea Level Pressure  
Sea Level Pressure 30.11 in    
Wind  
Wind Speed 1 mph (SSE)    
Max Wind Speed 12 mph    
Max Gust Speed 23 mph    
Visibility 7 miles    
Events      
Averages and records for this station are not official NWS values.
T = Trace of Precipitation, MM = Missing Value Source: NWS Daily Summary

Daily Weather History Graph

Daily Weather History Graph

Search for Another Location

Airport:

Trip Planner

Search our weather history database for the weather conditions in past years. The results will help you decide how hot, cold, wet, or windy it might be!

Date:

Astronomy

Jul. 31, 2013 Rise Set
Actual Time 6:45 AM EDT 8:17 PM EDT
Civil Twilight 6:19 AM EDT 8:42 PM EDT
Nautical Twilight 5:48 AM EDT 9:13 PM EDT
Astronomical Twilight 5:16 AM EDT 9:45 PM EDT
Moon 1:39 AM EDT (7/31) 3:30 PM EDT (7/31)
Length of Visible Light 14h 23m
Length of Day
13h 31m
Waning Crescent, 32% of the Moon is Illuminated
Jul 31
Waning Crescent
Aug 6
New
Aug 14
First Quarter
Aug 20
Full
Aug 28
Last Quarter

Hourly Weather History & Observations

Time (EDT) Temp. Heat Index Dew Point Humidity Pressure Visibility Wind Dir Wind Speed Gust Speed Precip Events Conditions
12:15 AM 78.8 °F - 75.2 °F 89% 30.16 in 8.0 mi Calm Calm - N/A   Clear
12:35 AM 78.8 °F - 75.2 °F 89% 30.16 in 7.0 mi Calm Calm - N/A   Clear
12:55 AM 78.8 °F - 75.2 °F 89% 30.16 in 7.0 mi Calm Calm - N/A   Clear
1:15 AM 78.8 °F - 75.2 °F 89% 30.15 in 7.0 mi Calm Calm - N/A   Clear
1:35 AM 78.8 °F - 75.2 °F 89% 30.14 in 7.0 mi Calm Calm - N/A   Clear
1:55 AM 78.8 °F - 75.2 °F 89% 30.13 in 7.0 mi Calm Calm - N/A   Clear
2:15 AM 78.8 °F - 75.2 °F 89% 30.12 in 7.0 mi Calm Calm - N/A   Clear
2:55 AM 77.0 °F - 75.2 °F 94% 30.11 in 7.0 mi Calm Calm - N/A   Clear
3:15 AM 77.0 °F - 75.2 °F 94% 30.11 in 7.0 mi Calm Calm - N/A   Clear
3:35 AM 75.2 °F - 75.2 °F 100% 30.10 in 7.0 mi Calm Calm - N/A   Clear
3:55 AM 75.2 °F - 75.2 °F 100% 30.10 in 7.0 mi Calm Calm - N/A   Clear
4:15 AM 75.2 °F - 73.4 °F 94% 30.10 in 6.0 mi Calm Calm - N/A   Clear
4:35 AM 75.2 °F - 73.4 °F 94% 30.10 in 7.0 mi Calm Calm - N/A   Clear
4:55 AM 75.2 °F - 73.4 °F 94% 30.11 in 6.0 mi Calm Calm - N/A   Clear
5:15 AM 75.2 °F - 73.4 °F 94% 30.11 in 7.0 mi Calm Calm - N/A   Clear
5:35 AM 75.2 °F - 73.4 °F 94% 30.12 in 6.0 mi Calm Calm - N/A   Clear
5:55 AM 75.2 °F - 73.4 °F 94% 30.12 in 7.0 mi Calm Calm - N/A   Clear
6:15 AM 75.2 °F - 73.4 °F 94% 30.12 in 7.0 mi Calm Calm - N/A   Clear
6:35 AM 73.4 °F - 73.4 °F 100% 30.13 in 7.0 mi Calm Calm - N/A   Clear
6:55 AM 75.2 °F - 73.4 °F 94% 30.13 in 7.0 mi Calm Calm - N/A   Clear
7:15 AM 75.2 °F - 73.4 °F 94% 30.13 in 7.0 mi Calm Calm - N/A   Clear
7:35 AM 75.2 °F - 75.2 °F 100% 30.14 in 7.0 mi Calm Calm - N/A   Clear
7:55 AM 78.8 °F - 77.0 °F 94% 30.14 in 6.0 mi Calm Calm - N/A   Clear
8:15 AM 78.8 °F - 78.8 °F 100% 30.15 in 7.0 mi Calm Calm - N/A   Clear
8:35 AM 80.6 °F 89.3 °F 80.6 °F 100% 30.15 in 7.0 mi Calm Calm - N/A   Clear
8:55 AM 84.2 °F 100.6 °F 82.4 °F 94% 30.15 in 7.0 mi Calm Calm - N/A   Clear
9:15 AM 86.0 °F 101.9 °F 80.6 °F 84% 30.16 in 7.0 mi Calm Calm - N/A   Partly Cloudy
9:35 AM 87.8 °F 102.5 °F 78.8 °F 75% 30.16 in 8.0 mi Calm Calm - N/A   Partly Cloudy
9:55 AM 89.6 °F 102.2 °F 77.0 °F 66% 30.16 in 8.0 mi Calm Calm - N/A   Partly Cloudy
10:15 AM 91.4 °F 105.1 °F 77.0 °F 63% 30.16 in 8.0 mi Calm Calm - N/A   Scattered Clouds
10:35 AM 91.4 °F 102.5 °F 75.2 °F 59% 30.16 in 8.0 mi Calm Calm - N/A   Mostly Cloudy
10:55 AM 91.4 °F 100.1 °F 73.4 °F 55% 30.16 in 8.0 mi Calm Calm - N/A   Mostly Cloudy
11:15 AM 93.2 °F 102.4 °F 73.4 °F 52% 30.16 in 8.0 mi Calm Calm - N/A   Scattered Clouds
11:35 AM 93.2 °F 102.4 °F 73.4 °F 52% 30.15 in 8.0 mi Calm Calm - N/A   Partly Cloudy
11:55 AM 95.0 °F 104.5 °F 73.4 °F 49% 30.14 in 8.0 mi Calm Calm - N/A   Clear
12:15 PM 95.0 °F 103.2 °F 71.6 °F 47% 30.14 in 10.0 mi SSE 3.5 mph - N/A   Partly Cloudy
12:35 PM 95.0 °F 103.2 °F 71.6 °F 47% 30.13 in 8.0 mi Calm Calm - N/A   Partly Cloudy
12:55 PM 95.0 °F 103.2 °F 71.6 °F 47% 30.12 in 7.0 mi Calm Calm - N/A   Partly Cloudy
1:15 PM 95.0 °F 103.2 °F 71.6 °F 47% 30.11 in 10.0 mi Calm Calm - N/A   Partly Cloudy
1:35 PM 95.0 °F 103.2 °F 71.6 °F 47% 30.10 in 9.0 mi Calm Calm - N/A   Partly Cloudy
1:55 PM 95.0 °F 103.2 °F 71.6 °F 47% 30.09 in 8.0 mi Calm Calm - N/A   Partly Cloudy
2:15 PM 96.8 °F 105.1 °F 71.6 °F 44% 30.08 in 9.0 mi Calm Calm - N/A   Partly Cloudy
2:35 PM 96.8 °F 105.1 °F 71.6 °F 44% 30.07 in 8.0 mi Calm Calm - N/A   Partly Cloudy
2:55 PM 95.0 °F 107.4 °F 75.2 °F 53% 30.07 in 8.0 mi East 3.5 mph - N/A   Partly Cloudy
3:15 PM 91.4 °F 102.5 °F 75.2 °F 59% 30.06 in 9.0 mi SSE 10.4 mph 16.1 mph N/A   Clear
3:35 PM 91.4 °F 102.5 °F 75.2 °F 59% 30.06 in 8.0 mi SSE 3.5 mph - N/A   Clear
3:55 PM 93.2 °F 105.0 °F 75.2 °F 56% 30.04 in 8.0 mi SE 10.4 mph 18.4 mph N/A   Clear
4:15 PM 93.2 °F 102.4 °F 73.4 °F 52% 30.04 in 9.0 mi SE 6.9 mph - N/A   Clear
4:35 PM 91.4 °F 102.5 °F 75.2 °F 59% 30.05 in 6.0 mi SSE 10.4 mph - N/A   Clear
4:55 PM 89.6 °F 98.2 °F 73.4 °F 59% 30.05 in 7.0 mi SSE 11.5 mph - N/A   Clear
5:15 PM 89.6 °F 96.2 °F 71.6 °F 55% 30.06 in 8.0 mi Calm Calm - N/A   Clear
5:35 PM 89.6 °F 96.2 °F 71.6 °F 55% 30.05 in 8.0 mi SSW 5.8 mph - N/A   Clear
5:55 PM 89.6 °F 98.2 °F 73.4 °F 59% 30.04 in 7.0 mi Calm Calm - N/A   Clear
6:15 PM 87.8 °F 95.6 °F 73.4 °F 62% 30.04 in 7.0 mi Calm Calm - N/A   Clear
6:35 PM 87.8 °F 97.6 °F 75.2 °F 66% 30.05 in 9.0 mi ESE 3.5 mph - N/A   Partly Cloudy
6:55 PM 86.0 °F 95.1 °F 75.2 °F 70% 30.04 in 7.0 mi Calm Calm - N/A   Clear
7:15 PM 84.2 °F 90.9 °F 73.4 °F 70% 30.06 in 9.0 mi Calm Calm - N/A   Clear
7:35 PM 84.2 °F 90.9 °F 73.4 °F 70% 30.06 in 8.0 mi Calm Calm - N/A   Clear
7:55 PM 82.4 °F 88.2 °F 73.4 °F 74% 30.06 in 9.0 mi Calm Calm - N/A   Clear
8:15 PM 82.4 °F 88.2 °F 73.4 °F 74% 30.07 in 8.0 mi Calm Calm - N/A   Scattered Clouds
8:35 PM 82.4 °F 89.5 °F 75.2 °F 79% 30.07 in 8.0 mi Calm Calm - N/A   Scattered Clouds
8:55 PM 82.4 °F 88.2 °F 73.4 °F 74% 30.08 in 5.0 mi Calm Calm - N/A   Partly Cloudy
9:15 PM 82.4 °F 88.2 °F 73.4 °F 74% 30.09 in 9.0 mi Calm Calm - N/A   Clear
9:35 PM 80.6 °F 85.4 °F 73.4 °F 79% 30.10 in 7.0 mi Calm Calm - N/A   Scattered Clouds
9:55 PM 77.0 °F - 71.6 °F 83% 30.12 in 10.0 mi WSW 11.5 mph 23.0 mph N/A   Mostly Cloudy
10:15 PM 73.4 °F - 71.6 °F 94% 30.11 in 4.0 mi WNW 6.9 mph - N/A   Overcast
10:35 PM 73.4 °F - 69.8 °F 88% 30.11 in 5.0 mi Calm Calm - N/A   Scattered Clouds
10:55 PM 73.4 °F - 69.8 °F 88% 30.11 in 3.0 mi Calm Calm - N/A   Scattered Clouds
11:15 PM 73.4 °F - 71.6 °F 94% 30.11 in 4.0 mi Calm Calm - N/A   Mostly Cloudy
11:35 PM 73.4 °F - 71.6 °F 94% 30.11 in 2.5 mi Calm Calm - N/A   Mostly Cloudy
11:55 PM 73.4 °F - 71.6 °F 94% 30.10 in 3.0 mi Calm Calm - N/A   Overcast